Date String (YYYY-MM-DD hh:mm:ss) UTC,Instrument flags,absolute air pressure of the measurement (hPa),sample flow rate (lpm),inlet stack bypass flow (lpm),air temperature of the measurement (°C),ambient temperature measured by the external sensor (°C),aerosol sample conditioner tube jacket temperature (°C),OPC LED temperature (°C),internal box temperature (°C),relative humidity of the measurement (%),span deviation,mass concentration of particles derived from Lorenz-Mie calculation of OPC scattering (μg/m³),mass concentration of particles derived from Lorenz-Mie calculation of OPC scattering (μg/m³),mass concentration of particles derived from Lorenz-Mie calculation of OPC scattering (μg/m³)
DateTimeUTC,F1_M11,P_M11,Q1_M11,Q2_M11,T1_M11,T2_M11,T3_M11,T4_M11,T5_M11,U1_M11,ZSPAN_M11,X2_M11,X0_M11,X1_M11
2023-06-11 04:00:00,SystemResetWarning,0831.2,5.00,000.00,030.0,028.5,000.0,038.4,031.6,23.9,0000.0,0004.12,0009.10,0003.19
2023-06-11 04:01:00,SystemResetWarning,0831.2,5.00,000.00,030.0,028.5,000.0,038.4,031.6,23.9,0000.0,0004.10,0009.00,0003.19
2023-06-11 04:02:00,SystemResetWarning,0831.2,5.00,000.00,030.0,028.6,000.0,038.5,031.6,23.9,0000.0,0004.08,0010.11,0003.19
2023-06-11 04:03:00,SystemResetWarning,0831.2,5.00,000.00,030.0,028.6,000.0,038.5,031.6,23.9,0000.0,0004.06,0010.57,0003.18
2023-06-11 04:04:00,SystemResetWarning,0831.3,4.99,000.00,030.0,028.4,000.0,038.5,031.6,23.9,0000.0,0003.98,0010.34,0003.18
2023-06-11 04:05:00,SystemResetWarning,0831.3,4.99,000.00,030.0,026.3,000.0,038.4,031.5,23.9,0000.0,0003.99,0010.32,0003.18
2023-06-11 04:06:00,SystemResetWarning,0831.3,5.00,000.00,030.0,024.8,000.0,038.4,031.4,23.8,0000.0,0004.05,0010.76,0003.19
2023-06-11 04:07:00,SystemResetWarning,0831.3,5.00,000.00,029.9,024.7,000.0,038.4,031.1,24.2,0000.0,0004.08,0010.95,0003.20
2023-06-11 04:08:00,SystemResetWarning,0831.3,5.01,000.00,029.8,025.1,000.0,038.3,031.0,25.9,0000.0,0004.10,0010.93,0003.23
2023-06-11 04:09:00,SystemResetWarning,0831.3,5.01,000.00,029.7,025.5,000.0,038.3,030.9,25.8,0000.0,0004.16,0011.06,0003.24
2023-06-11 04:10:00,SystemResetWarning,0831.3,4.99,000.00,029.6,025.9,000.0,038.3,030.8,25.5,0000.0,0004.18,0010.86,0003.26
2023-06-11 04:11:00,SystemResetWarning,0831.3,4.99,000.00,029.6,026.3,000.0,038.3,030.9,25.3,0000.0,0004.21,0010.68,0003.27
2023-06-11 04:12:00,SystemResetWarning,0831.4,5.00,000.00,029.6,026.6,000.0,038.3,030.9,25.3,0000.0,0004.22,0010.65,0003.27
2023-06-11 04:13:00,SystemResetWarning,0831.4,5.01,000.00,029.6,026.9,000.0,038.2,031.0,25.3,0000.0,0004.26,0009.53,0003.27
2023-06-11 04:14:00,SystemResetWarning,0831.5,5.00,000.00,029.5,027.2,000.0,038.2,031.0,25.6,0000.0,0004.31,0009.17,0003.28
2023-06-11 04:15:00,SystemResetWarning,0831.5,5.00,000.00,029.5,027.4,000.0,038.2,031.0,26.1,0000.0,0004.34,0009.68,0003.29
2023-06-11 04:16:00,SystemResetWarning,0831.5,5.00,000.00,029.5,027.5,000.0,038.2,031.1,26.5,0000.0,0004.31,0009.64,0003.29
2023-06-11 04:17:00,SystemResetWarning,0831.5,5.01,000.00,029.6,027.6,000.0,038.2,031.1,26.8,0000.0,0004.30,0009.24,0003.30
2023-06-11 04:18:00,SystemResetWarning,0831.5,5.00,000.00,029.6,027.7,000.0,038.2,031.1,26.6,0000.0,0004.30,0009.33,0003.31
2023-06-11 04:19:00,SystemResetWarning,0831.5,5.00,000.00,029.6,027.8,000.0,038.2,031.1,26.4,0000.0,0004.31,0009.35,0003.31
2023-06-11 04:20:00,SystemResetWarning,0831.5,4.99,000.00,029.6,027.9,000.0,038.2,031.1,26.2,0000.0,0004.27,0009.34,0003.31
2023-06-11 04:21:00,SystemResetWarning,0831.5,4.99,000.00,029.6,028.0,000.0,038.2,031.2,25.7,0000.0,0004.26,0009.39,0003.32
2023-06-11 04:22:00,SystemResetWarning,0831.6,4.99,000.00,029.6,028.0,000.0,038.2,031.2,25.5,0000.0,0004.25,0009.33,0003.32
2023-06-11 04:23:00,SystemResetWarning,0831.6,5.01,000.00,029.6,028.0,000.0,038.2,031.2,25.5,0000.0,0004.23,0009.22,0003.34
2023-06-11 04:24:00,SystemResetWarning,0831.6,5.00,000.00,029.6,028.1,000.0,038.2,031.2,25.5,0000.0,0004.24,0009.20,0003.36
2023-06-11 04:25:00,SystemResetWarning,0831.6,5.01,000.00,029.7,028.1,000.0,038.2,031.2,25.3,0000.0,0004.22,0009.11,0003.38
2023-06-11 04:26:00,SystemResetWarning,0831.7,5.00,000.00,029.7,028.2,000.0,038.2,031.2,25.1,0000.0,0004.19,0008.77,0003.37
2023-06-11 04:27:00,SystemResetWarning,0831.7,4.99,000.00,029.7,028.2,000.0,038.2,031.2,25.4,0000.0,0004.22,0008.87,0003.38
2023-06-11 04:28:00,SystemResetWarning,0831.7,4.99,000.00,029.7,028.2,000.0,038.2,031.2,25.7,0000.0,0004.20,0008.82,0003.39
2023-06-11 04:29:00,SystemResetWarning,0831.7,5.00,000.00,029.7,028.2,000.0,038.2,031.3,25.7,0000.0,0004.18,0008.49,0003.40
2023-06-11 04:30:00,SystemResetWarning,0831.7,5.01,000.00,029.7,028.3,000.0,038.2,031.3,25.7,0000.0,0004.15,0008.33,0003.40
2023-06-11 04:31:00,SystemResetWarning,0831.7,5.01,000.00,029.8,028.3,000.0,038.2,031.3,25.8,0000.0,0004.16,0008.32,0003.40
2023-06-11 04:32:00,SystemResetWarning,0831.7,4.99,000.00,029.8,028.3,000.0,038.3,031.4,25.9,0000.0,0004.15,0008.25,0003.41
2023-06-11 04:33:00,SystemResetWarning,0831.7,4.99,000.00,029.8,028.3,000.0,038.3,031.4,26.0,0000.0,0004.17,0008.39,0003.42
2023-06-11 04:34:00,SystemResetWarning,0831.8,5.00,000.00,029.8,028.3,000.0,038.3,031.4,25.9,0000.0,0004.18,0008.50,0003.43
2023-06-11 04:35:00,SystemResetWarning,0832.0,5.01,000.00,029.8,028.3,000.0,038.3,031.4,25.8,0000.0,0004.20,0008.57,0003.44
2023-06-11 04:36:00,SystemResetWarning,0832.2,5.01,000.00,029.8,028.4,000.0,038.3,031.4,25.8,0000.0,0004.19,0008.66,0003.44
2023-06-11 04:37:00,SystemResetWarning,0832.0,5.00,000.00,029.9,028.4,000.0,038.3,031.4,25.7,0000.0,0004.26,0009.16,0003.47
2023-06-11 04:38:00,SystemResetWarning,0831.8,4.99,000.00,029.9,028.4,000.0,038.4,031.5,25.8,0000.0,0004.31,0009.14,0003.49
2023-06-11 04:39:00,SystemResetWarning,0831.8,4.99,000.00,029.9,028.4,000.0,038.4,031.4,25.7,0000.0,0004.34,0009.27,0003.50
2023-06-11 04:40:00,SystemResetWarning,0831.8,5.00,000.00,029.9,028.4,000.0,038.4,031.4,25.9,0000.0,0004.38,0009.54,0003.51
2023-06-11 04:41:00,SystemResetWarning,0831.8,5.00,000.00,029.9,028.4,000.0,038.4,031.5,25.9,0000.0,0004.40,0009.66,0003.51
2023-06-11 04:42:00,SystemResetWarning,0831.8,4.99,000.00,029.9,028.4,000.0,038.4,031.5,25.9,0000.0,0004.39,0010.04,0003.52
2023-06-11 04:43:00,SystemResetWarning,0831.8,5.01,000.00,029.9,028.4,000.0,038.4,031.5,25.8,0000.0,0004.41,0010.09,0003.53
2023-06-11 04:44:00,SystemResetWarning,0831.9,5.01,000.00,030.0,028.5,000.0,038.4,031.5,25.8,0000.0,0004.43,0011.26,0003.54
2023-06-11 04:45:00,SystemResetWarning,0831.8,5.00,000.00,030.0,028.5,000.0,038.4,031.5,25.7,0000.0,0004.45,0011.45,0003.55
2023-06-11 04:46:00,SystemResetWarning,0831.9,4.99,000.00,030.0,028.5,000.0,038.5,031.6,25.5,0000.0,0004.43,0011.33,0003.55
2023-06-11 04:47:00,SystemResetWarning,0831.9,4.99,000.00,030.0,028.5,000.0,038.5,031.6,25.4,0000.0,0004.42,0011.25,0003.55
2023-06-11 04:48:00,SystemResetWarning,0831.9,5.01,000.00,030.0,028.5,000.0,038.5,031.6,25.7,0000.0,0004.43,0010.76,0003.55
2023-06-11 04:49:00,SystemResetWarning,0832.0,5.01,000.00,030.0,028.5,000.0,038.5,031.6,25.5,0000.0,0004.42,0011.08,0003.53
2023-06-11 04:50:00,SystemResetWarning,0832.0,5.01,000.00,030.0,028.5,000.0,038.5,031.6,25.6,0000.0,0004.43,0011.09,0003.52
2023-06-11 04:51:00,SystemResetWarning,0832.0,5.00,000.00,030.1,028.5,000.0,038.5,031.6,25.6,0000.0,0004.38,0010.85,0003.50
2023-06-11 04:52:00,SystemResetWarning,0832.0,4.98,000.00,030.1,028.6,000.0,038.5,031.6,25.7,0000.0,0004.32,0010.86,0003.50
2023-06-11 04:53:00,SystemResetWarning,0832.0,5.00,000.00,030.1,028.6,000.0,038.5,031.6,25.3,0000.0,0004.28,0010.81,0003.49
2023-06-11 04:54:00,SystemResetWarning,0832.0,5.01,000.00,030.1,028.6,000.0,038.6,031.6,25.5,0000.0,0004.26,0010.82,0003.46
2023-06-11 04:55:00,SystemResetWarning,0832.0,5.01,000.00,030.1,028.6,000.0,038.6,031.6,25.7,0000.0,0004.21,0010.02,0003.43
2023-06-11 04:56:00,SystemResetWarning,0832.0,4.99,000.00,030.1,028.6,000.0,038.6,031.7,25.9,0000.0,0004.17,0009.38,0003.41
2023-06-11 04:57:00,SystemResetWarning,0832.0,4.99,000.00,030.1,028.6,000.0,038.6,031.7,26.0,0000.0,0004.15,0009.55,0003.40
2023-06-11 04:58:00,SystemResetWarning,0832.0,5.01,000.00,030.1,028.6,000.0,038.6,031.7,26.1,0000.0,0004.14,0009.70,0003.39
2023-06-11 04:59:00,SystemResetWarning,0832.0,5.01,000.00,030.2,028.6,000.0,038.6,031.7,26.4,0000.0,0004.08,0009.65,0003.38
